Find Starlink 5626

NORAD ID: 55435 Int'l Des: 2023-014 Owner: SPXS Country: US Constellation: starlink operational
LEOCIRCULAR

現在のビュー

3D地球を読み込み中...

About Starlink 5626

Starlink 5626 (NORAD 55435) is a starlink constellation satellite (v1.5) launched Jan 31, 2023 by SPXS of US. It operates in LEO, CIRCULAR orbit with a mass of 305.00 kg.

Starlink 5626について

説明を読み込み中...

次回通過

Passes for default location (London). Set your location on the main map for personalized predictions.

高度履歴

Loading altitude history...

軌道要素

1 55435U 23014AW 26178.20436432 -.00000317 00000-0 -18786-4 0 9997
2 55435 69.9992 188.2994 0003675 266.7538 93.3201 14.98328711187476
Epoch: Jun 27, 2026 • Age: 5 hours

現在のステータス

高度 579.1 km
速度 7.57 km/s
衛星直下点 40.13°N, 141.46°E
打ち上げ日 Jan 31, 2023
運用期間 3.4 years
タイプ internet

技術仕様

分類 Payload
質量 305.00 kg
乾燥質量 290.00 kg
総質量 305.00 kg
長さ 0.20 m
直径 2.80 m
スパン 9.00 m
形状 Box + pan
製造者 SPXS
バスタイプ Starlink
フェーズステータス In Orbit
所有者/国 SPXS/US

Most Searched